{"data":{"norad_id":48133,"intl_designator":"2021-027AT","name":"STARLINK-2475","alt_names":[],"object_type":"PAYLOAD","status":"ACTIVE","operator":null,"country":"US","launch_date":"2021-04-07","launch_site_code":"AFETR","launch_vehicle":null,"mission":null,"orbit_class":"UNKNOWN","rcs_meters":null,"size_class":null,"mass_kg":null,"dimensions":null,"purposes":["comms"],"wikipedia_slug":null,"has_3d_model":false,"image_url":null,"decayed_at":null,"tle_current":{"epoch":"2026-05-25T01:24:26.319744Z","epoch_age_seconds":63831,"freshness":"FRESH","line1":"1 48133U 21027AT  26145.05863796  .00000934  00000+0  41852-4 0  9992","line2":"2 48133  53.1577 170.1978 0001215  82.2005 277.9135 15.31700313284213","mean_motion":15.31700313,"eccentricity":0.0001215,"inclination_deg":53.1577,"raan_deg":170.1978,"arg_perigee_deg":82.2005,"mean_anomaly_deg":277.9135,"bstar":4.1852e-5,"rev_number":28421,"period_min":94.013168749676,"perigee_km":469.90692374754,"apogee_km":471.57120063065,"semimajor_km":6848.8760621891,"source":"CELESTRAK","updated_at":"2026-05-25T13:38:16.648760Z"}}}